Location: Tioga
(33.4668°N, 96.9183°W)
Time: 01:03:18
(UTC+00:00)

Daily predictions for brighter satellites

Satellite Brightness Start Highest point End
(mag) Time Altitude Azimuth Time Altitude Azimuth Time Altitude Azimuth
USA 234 3.7 01:46:15 10° SSE 01:52:43 62° SW 01:59:12 10° NW
Cosmos 1743 Rocket 3.7 01:49:34 10° N 01:54:01 84° W 01:58:26 10° S
COSMOS 2487 2.3 01:52:28 10° NNW 01:55:35 75° WSW 01:58:40 10° S
Cosmos 1812 3.4 01:52:40 10° SSW 01:56:23 58° W 02:00:09 10° N
Gbstr 26 Del rocket 4.5 01:49:40 10° NW 01:57:06 59° NE 02:03:16 10° ESE
Cosmos 1805 Rocket 3.6 01:54:20 10° N 01:58:47 73° E 02:03:11 10° SSE
Cosmos 44 3.5 01:55:46 10° NNW 01:59:55 44° ENE 02:04:05 10° SE
Cosmos 1697 Rocket 3.0 01:58:37 10° S 02:03:58 46° ESE 02:09:21 10° NE
SL-27 R/B 4.0 02:01:29 10° NW 02:04:30 33° WSW 02:07:28 10° SSW
Okean O Rocket 3.7 02:00:53 10° SSW 02:04:34 27° W 02:08:16 10° NW
YAOGAN 1 4.4 02:02:09 10° SSW 02:05:59 31° W 02:09:51 10° NW
Cosmos 2360 4.5 02:01:22 10° S 02:06:44 45° ESE 02:12:07 10° NE
Cosmos 1633 Rocket 4.2 02:03:06 10° NNE 02:06:45 26° ENE 02:10:21 10° SE
OAO 3 Rocket 3.4 02:04:09 10° W 02:09:03 74° N 02:14:00 10° E
H-2A R/B 2.6 02:05:23 10° SSE 02:09:46 67° ENE 02:14:02 10° N
CZ-4 R/B 3.2 02:06:54 10° SSW 02:10:28 32° W 02:14:07 10° NNW
CSL-04 Debris 4.2 02:05:55 10° SSE 02:11:21 85° ENE 02:16:46 10° NNW
ATLAS CENTAUR Rocket 4.0 01:54:03 10° SW 02:13:36 36° S 02:18:21 12° ESE
Cosmos 1570 Rocket 4.4 02:09:35 10° N 02:14:39 48° ENE 02:19:30 11° SE
Tsikada Rocket 4.0 02:08:30 10° N 02:14:48 76° E 02:20:58 10° S
Sich 1 3.0 02:11:20 10° N 02:15:42 88° WSW 02:19:59 10° S
Cosmos 1486 Rocket 4.3 02:12:12 10° S 02:17:14 46° ESE 02:22:17 10° NNE
Cosmos 2297 Rocket 2.6 02:13:23 10° N 02:18:50 47° ENE 02:23:35 13° SE
Resurs 01 Rocket 3.0 02:16:10 12° ESE 02:19:05 22° ENE 02:22:29 10° NNE
Cosmos 1814 Rocket 3.9 02:15:04 10° NNW 02:20:12 76° ENE 02:25:20 10° SSE
SJ-6B 2.7 02:18:49 10° SSE 02:22:39 86° W 02:26:27 10° NNW
Meteor 1-5 Rocket 4.1 02:18:47 10° N 02:24:09 89° W 02:29:26 10° S
Cosmos 1515 Rocket 4.4 02:21:56 12° SSE 02:25:24 30° E 02:29:13 10° NNE
Cosmos 1315 Rocket 3.1 02:21:52 10° N 02:25:48 49° E 02:29:00 14° SSE
USA 129 3.0 02:28:08 15° NNE 02:28:08 15° NNE 02:28:28 10° NNE
Meteor 1-10 Rocket 4.1 02:23:40 10° S 02:29:09 74° E 02:34:44 10° NNE
Okean-O 3.2 02:26:19 10° S 02:30:39 57° W 02:35:02 10° NNW
Cosmos 1340 3.5 02:28:29 17° SE 02:30:40 29° E 02:33:56 10° NNE
Cosmos 2098 Rocket 4.5 02:29:21 10° NW 02:31:48 23° W 02:34:10 10° SW
Cosmos 405 3.9 02:30:15 10° NNE 02:33:15 28° ENE 02:34:34 22° ESE
Cosmos 1184 Rocket 4.0 02:33:05 20° E 02:33:22 21° E 02:35:42 10° NE
Meteor 1-14 Rocket 4.5 02:30:52 10° NNW 02:36:45 75° W 02:42:26 10° S
Meteor 1-27 Rocket 3.9 02:33:39 10° S 02:39:11 54° E 02:44:52 10° NNE
IGS 5A 3.5 02:38:00 11° S 02:41:58 79° W 02:46:08 10° NNW
ATLAS 2AS CENTAUR R/B 3.2 02:35:43 10° S 02:43:06 48° ESE 02:50:24 10° NE
Cosmos 1743 3.9 02:41:23 10° NNE 02:44:28 23° ENE 02:45:13 22° E
Cosmos 1503 Rocket 4.2 02:41:20 10° S 02:46:21 49° ESE 02:51:28 10° NNE
PSLV R/B 3.9 02:42:32 10° N 02:46:35 85° WNW 02:50:36 10° SSW
BREEZE-M DEB (TANK) 3.3 02:44:19 10° NW 02:47:50 83° SW 02:51:14 22° SE
NOSS 3-4 (A) 4.5 02:42:52 10° SW 02:48:16 45° NW 02:53:57 10° NNE
NOSS 3-4 (C) 4.5 02:42:53 10° SW 02:48:19 46° NW 02:54:02 10° NNE
CZ-4B R/B 1.1 02:48:04 10° N 02:51:14 85° WNW 02:53:42 15° SSW
Cosmos 2278 4.4 02:48:35 19° SSE 02:51:40 33° ESE 02:56:39 10° NE
MetOp-A 4.3 02:48:27 10° S 02:52:27 45° W 02:56:14 10° NNW
COBE Rocket 4.3 02:47:29 10° S 02:52:34 67° W 02:57:34 10° NNW
Milstar 3 Cent rocket 4.4 02:33:34 10° W 02:52:46 52° SSW 02:59:33 21° SE
SPOT 1/Viking Rocket 3.8 02:53:29 25° SE 02:56:17 51° ENE 03:01:16 10° N
Cosmos 2219 3.3 02:51:20 10° NNW 02:56:53 58° ENE 02:59:50 27° SE
Meteor 1-11 Rocket 3.8 02:53:19 10° N 02:59:17 69° E 03:03:02 23° SSE
SWIFT 4.4 02:59:58 10° SSW 03:01:05 13° SSW 03:01:05 13° SSW
H-2A R/B 3.3 02:58:37 10° N 03:02:26 39° WNW 03:06:17 10° SW
Cosmos 1464 Rocket 3.9 02:57:24 11° S 03:03:22 73° E 03:09:31 10° N
Cosmos 2263 Rocket 3.9 03:05:15 10° NNE 03:08:49 17° ENE 03:10:33 15° E
Okean 1 3.8 03:09:21 38° E 03:09:30 38° E 03:13:13 10° NNE
RESURS DK-1 2.5 03:09:41 44° SE 03:10:12 47° ESE 03:14:10 10° NE
Aureole 1 Rocket 3.7 03:07:03 10° SW 03:10:24 39° WNW 03:13:19 10° N
Cosmos 1536 2.7 03:08:40 10° N 03:12:41 72° E 03:13:43 47° SSE
Cosmos 2344 3.7 03:06:00 10° SW 03:13:54 74° WNW 03:21:19 10° NNE
NOSS 3-2 (C) 4.5 03:09:51 10° NW 03:17:49 66° WSW 03:23:43 23° S
Ariane Rocket 2.9 03:18:14 36° SSE 03:20:24 84° ENE 03:25:30 10° NNW
SL-4 R/B 3.1 03:16:54 10° NNW 03:21:06 37° NE 03:22:14 31° ENE
IRS-1A Rocket 4.4 03:21:20 26° S 03:24:34 71° WSW 03:30:18 10° NNW
Cosmos 2227 Rocket 2.4 03:20:16 10° NNW 03:25:54 68° WSW 03:28:31 32° S
CENTAUR R/B 4.3 03:18:15 10° NW 03:26:08 39° WSW 03:33:20 13° S
Nadezhda 4 Rocket 4.1 03:20:08 10° N 03:26:14 58° E 03:28:17 40° SE
CZ-2C R/B 4.4 03:23:03 10° NNE 03:27:10 37° E 03:27:10 37° E
Cosmos 1980 Rocket 2.5 03:23:00 10° SSW 03:28:34 65° WNW 03:34:11 10° NNE
ASTRO E2 3.3 03:29:24 10° W 03:32:28 41° SW 03:32:28 41° SW
Cosmos 1933 Rocket 3.5 03:29:12 10° N 03:33:40 88° W 03:34:30 59° S
SPOT 5 3.6 03:34:22 39° E 03:35:06 41° ENE 03:39:59 10° N
Cosmos 2322 Rocket 3.8 03:38:50 18° ENE 03:38:50 18° ENE 03:40:59 10° NE
Meteor 1-19 Rocket 4.0 03:36:58 37° S 03:39:13 89° E 03:44:38 10° N
Terra 3.0 03:40:18 28° ENE 03:40:18 28° ENE 03:44:12 10° NNE
Meteor 2-4 Rocket 4.1 03:40:03 44° ESE 03:40:27 45° E 03:45:52 10° NNE
Helios 1A Rocket 3.3 03:41:33 49° NE 03:41:33 49° NE 03:45:00 10° N
SJ 16-02 1.6 03:39:52 36° SW 03:41:29 66° WNW 03:45:51 10° N
Timation 2 Rocket 4.2 03:38:47 10° NNW 03:45:23 63° ENE 03:47:15 46° ESE
SPOT 3 Rocket 3.5 03:49:44 59° S 03:50:43 81° WSW 03:55:53 10° NNW
Cosmos 2026 Rocket 4.4 03:45:00 10° N 03:50:50 43° E 03:51:24 42° E
OAO 3 Rocket 3.1 03:47:45 10° WNW 03:52:43 87° SSW 03:52:53 83° SE
Cosmos 1777 Rocket 4.1 03:51:22 39° SSW 03:53:18 75° WNW 03:58:32 10° NNE
Spot 2 Rocket 3.4 03:53:56 65° E 03:54:09 66° ENE 03:59:10 10° N
Resurs 01 Rocket 3.4 03:53:43 20° SW 03:55:23 25° W 03:59:03 10° NW
Cosmos 2297 Rocket 4.3 03:58:34 10° WNW 04:02:25 19° W 04:05:25 13° SW
Cosmos 773 Rocket 3.9 03:58:56 10° NNW 04:04:05 72° ENE 04:04:05 72° ENE
Meteor 2-8 Rocket 4.3 04:04:47 63° ESE 04:05:12 65° E 04:11:13 10° NNE
Cosmos 1627 Rocket 4.4 04:04:16 10° N 04:10:29 66° E 04:10:57 63° ESE
Meteor 2-21 4.5 04:05:42 10° N 04:11:48 73° W 04:13:01 57° SSW
USA 215 3.5 04:05:38 10° NE 04:10:52 48° E 04:10:52 48° E
Meteor 2-9 Rocket 4.2 04:07:03 10° NNW 04:12:44 71° W 04:13:24 64° SW
Cosmos 2228 Rocket 4.0 04:14:40 43° W 04:15:04 45° W 04:19:27 10° N
SL-16 R/B 2.1 04:15:42 72° ENE 04:15:42 72° ENE 04:20:59 10° NNE
Cosmos 921 Rocket 4.0 04:13:49 10° NNW 04:17:43 44° W 04:17:43 44° W
Cosmos 1346 Rocket 4.3 04:21:06 33° N 04:21:06 33° N 04:23:23 10° N
Meteor 2-15 4.2 04:21:02 80° SE 04:21:14 82° E 04:27:18 10° N
USA 81 4.1 04:22:41 76° N 04:22:41 76° N 04:27:33 10° N
Cosmos 1869 Rocket 4.4 04:19:11 10° NNW 04:22:58 47° WNW 04:22:58 47° WNW
Meteor 2-21 Rocket 4.4 04:19:14 10° N 04:25:20 77° W 04:25:53 71° SW
Cosmos 2279 Rocket 3.9 04:28:04 69° ENE 04:28:04 69° ENE 04:33:59 10° NNE
ERS-1 Rocket 3.4 04:32:44 57° WNW 04:32:44 57° WNW 04:37:15 10° NNW
Cosmos 158 Rocket 4.3 04:27:06 10° NNW 04:31:26 61° NNE 04:31:26 61° NNE
ATLAS 2AS CENTAUR R/B 4.3 04:27:08 10° WSW 04:34:11 36° NW 04:41:07 10° NNE
Cosmos 44 Rocket 4.4 04:31:11 10° NNW 04:34:29 37° NNE 04:34:29 37° NNE
ARIANE 5 R/B 3.7 04:38:20 44° NNW 04:38:20 44° NNW 04:41:25 10° NNW
Meteor 2-16 Rocket 4.4 04:31:44 10° N 04:37:51 72° W 04:38:04 72° WSW
Cosmos 2360 Rocket 3.3 04:43:37 34° NE 04:43:37 34° NE 04:46:54 10° NNE
Cosmos 2263 Rocket 2.7 04:47:39 10° NNW 04:52:15 51° WNW 04:52:15 51° WNW
ATLAS CENTAUR R/B 4.4 05:00:39 10° NNE 05:01:51 11° NE 05:01:57 11° NE
ATLAS 3B R/B 3.0 05:00:31 10° NNW 05:07:56 63° ENE 05:08:17 62° ENE
Terra 3.9 05:19:10 21° WNW 05:19:10 21° WNW 05:21:38 10° NW
Cosmos 2322 Rocket 3.2 05:20:35 39° WNW 05:20:35 39° WNW 05:25:42 10° N
Cosmos 2333 Rocket 3.5 05:25:37 34° NE 05:25:37 34° NE 05:28:45 10° NNE
Cosmos 1844 Rocket 3.7 05:27:40 10° NNW 05:31:29 41° NNE 05:31:29 41° NNE
Cosmos 1655 Rocket 4.4 05:29:52 10° N 05:34:47 58° N 05:34:47 58° N
Cosmos 2219 Rocket 3.5 05:47:59 34° NNE 05:47:59 34° NNE 05:51:04 10° NNE
USA 215 4.4 05:48:51 10° NNE 05:54:49 39° NW 05:58:09 24° W
ADEOS Rocket 3.9 06:03:06 40° NNE 06:03:06 40° NNE 06:07:08 10° N
Cosmos 2237 Rocket 4.2 06:16:53 20° ENE 06:16:53 20° ENE 06:19:02 10° NE
COSMOS 2428 3.9 06:18:12 39° NNE 06:18:12 39° NNE 06:21:41 10° NNE
Cosmos 2360 Rocket 4.3 06:25:20 18° WNW 06:25:43 18° WNW 06:29:31 10° NNW
USA 267 4.2 06:24:07 35° ENE 06:25:50 41° NE 06:31:51 10° NNW
ATLAS CENTAUR R/B 4.1 06:36:35 10° NNW 06:37:56 19° NNW 06:37:56 19° NNW
Cosmos 2278 Rocket 3.6 06:46:19 10° N 06:50:47 32° NE 06:50:47 32° NE
S3M 4.5 06:57:20 58° N 06:57:20 58° N 07:02:19 10° N
NOSS 3-1 (A) 4.5 06:52:56 10° NNW 07:00:45 62° ENE 07:02:42 51° ESE
SL-16 R/B 4.1 07:03:37 21° ENE 07:03:37 21° ENE 07:06:19 10° NE
Cosmos 2333 Rocket 4.4 07:07:34 15° WNW 07:07:54 15° NW 07:10:59 10° NNW
NOSS 3-1 (C) 4.1 07:00:27 10° NNW 07:07:55 74° W 07:07:55 74° W
CZ-4C R/B 3.0 07:20:34 10° NNW 07:28:18 82° WSW 07:28:18 82° WSW
Lacrosse 5 3.2 07:35:14 37° NE 07:35:14 37° NE 07:38:16 10° NE
Lacrosse 5 rocket 4.0 07:43:58 16° NE 07:43:58 16° NE 07:44:52 10° NE
Meteor 2-5 Rocket 4.2 07:45:31 59° NE 07:45:31 59° NE 07:50:16 10° NNE
CZ-2D R/B 2.8 07:43:32 10° NNE 07:47:44 49° ENE 07:47:44 49° ENE
Cosmos 2237 Rocket 3.5 07:58:41 30° NW 07:58:41 30° NW 08:03:02 10° N
BREEZE-M DEB (TANK) 4.1 08:01:26 80° SSE 08:01:26 80° SSE 08:15:56 10° SE
USA 267 4.2 08:11:25 32° WNW 08:11:25 32° WNW 08:14:59 10° NW
SL-16 R/B 2.8 08:15:02 49° SE 08:16:33 63° ENE 08:22:42 10° N
Resurs 1-4 Rocket 2.4 08:11:45 10° N 08:16:15 61° NNW 08:16:15 61° NNW
Cosmos 292 Rocket 4.4 08:22:07 53° ENE 08:22:07 53° ENE 08:26:10 10° NNE
Cosmos 1943 Rocket 2.9 08:17:28 10° N 08:23:00 51° ENE 08:25:08 34° ESE
USA 229 DEB 4.1 08:17:33 10° NW 08:24:29 53° WSW 08:24:29 53° WSW
USA 229 4.1 08:17:39 10° NW 08:24:38 54° WSW 08:24:38 54° WSW
Cosmos 2074 Rocket 3.9 08:25:10 10° N 08:31:29 84° E 08:32:36 63° SSE
ADEOS II 2.0 08:27:06 10° NNE 08:32:22 81° ESE 08:32:23 81° ESE
IDEFIX/ARIANE 42P 2.7 08:27:33 10° NNE 08:32:48 66° ESE 08:33:04 65° ESE
Cosmos 2278 Rocket 3.9 08:30:32 10° NW 08:32:36 19° WNW 08:32:36 19° WNW
Cosmos 1536 Rocket 4.0 08:36:37 58° N 08:36:37 58° N 08:40:10 10° N
NOSS 3-3 (A) 4.0 08:35:52 52° SE 08:36:21 53° ESE 08:42:10 10° NE
NOSS 3-3 (C) 4.0 08:35:58 51° SE 08:36:27 52° ESE 08:42:14 10° NE
OAO 2 Rocket 4.2 08:38:02 37° ESE 08:38:02 37° ESE 08:41:25 10° E
DNEPR-1 R/B 4.4 08:45:34 40° ESE 08:45:34 40° ESE 08:49:19 10° NE
SL-16 R/B 2.9 08:45:29 37° WNW 08:45:41 38° WNW 08:50:56 10° N
CZ-3A R/B 4.3 08:46:12 22° SE 08:46:12 22° SE 08:53:42 10° E
NPP 4.1 08:41:30 10° N 08:46:35 45° WNW 08:46:35 45° WNW
Cosmos 2184 Rocket 3.8 08:40:27 10° N 08:46:41 76° W 08:47:43 61° SSW
FALCON 9 R/B 4.1 08:15:26 10° WNW 08:46:55 67° SSW 08:54:27 10° SE
Cosmos 1455 3.7 08:44:24 10° N 08:46:22 29° NNW 08:46:22 29° NNW
IRS-1D 4.1 08:43:18 10° NNE 08:48:30 53° E 08:49:47 43° SE
Cosmos 2369 Rocket 3.9 08:44:21 10° N 08:49:15 30° ENE 08:54:08 10° ESE
UNK 3.9 08:52:25 59° NW 08:52:25 59° NW 08:56:21 10° NNW
Cosmos 1271 Rocket 3.3 08:49:16 10° N 08:52:48 55° ENE 08:52:48 55° ENE
YAOGAN 11 4.3 08:54:01 59° NW 08:54:01 59° NW 08:57:49 10° NNW
COSMOS 2455 3.1 08:57:22 47° W 08:58:25 53° WNW 09:04:19 10° NNE
COSMOS 2441 4.5 08:54:02 10° NNE 08:58:52 69° ESE 08:59:45 55° SSE
MOS 1 Rocket 3.4 09:00:29 51° NW 09:00:29 51° NW 09:03:56 10° NNW
Cosmos 1603 3.8 09:07:22 43° S 09:09:09 71° ESE 09:14:47 10° NNE
Helios 1B rocket 3.4 09:08:52 10° NNE 09:12:42 40° E 09:14:02 30° SE
Cosmos 1328 4.0 09:14:10 54° SE 09:14:48 64° E 09:18:44 10° NNE
ALOS 4.1 09:10:57 10° NE 09:14:52 26° E 09:18:23 12° SSE
Nadezhda 1 Rocket 4.4 09:13:36 40° WSW 09:15:03 47° W 09:21:07 10° N
Lacrosse 5 4.1 09:14:25 12° WNW 09:16:45 16° NW 09:19:48 10° N
MSX 3.9 09:13:06 10° N 09:18:46 62° WNW 09:20:38 41° SW
Helios 1A 3.0 09:19:41 56° W 09:19:41 56° W 09:23:45 10° NNW
Lacrosse 5 rocket 3.6 09:19:29 12° NW 09:20:28 13° NW 09:22:21 10° N
CZ-2C R/B 4.0 09:16:10 10° NE 09:20:39 32° E 09:24:40 12° SSE
CZ-2D R/B 4.0 09:25:21 10° NNW 09:28:15 15° WNW 09:29:03 14° WNW
Chunghua 1 4.4 09:28:15 57° NW 09:28:49 73° N 09:32:21 10° E
Lacrosse 4 Rocket 3.4 09:27:30 14° SSE 09:30:07 24° ESE 09:33:34 10° NE
Cosmos 1371 Rocket 4.2 09:30:20 28° S 09:33:03 69° ESE 09:38:12 10° NNE
Cosmos 1892 Rocket 3.5 09:33:24 35° S 09:35:15 89° ESE 09:39:45 10° N
Cosmos 407 Rocket 4.5 09:31:25 10° N 09:36:33 48° ENE 09:41:34 10° SE
GPS 2-04 Rocket1 2.2 09:39:12 63° WSW 09:39:41 82° SSE 09:43:12 10° ENE
Cosmos 1943 3.5 09:37:59 32° SW 09:40:20 53° WNW 09:45:54 10° N
Meteor 2-1 Rocket 4.1 09:38:38 10° N 09:44:23 83° W 09:49:57 10° S
Cosmos 1726 Rocket 3.5 09:40:39 10° N 09:45:04 87° E 09:48:44 14° S
ATLAS 2A CENTAUR R/B 3.9 09:33:44 20° WSW 09:46:34 56° S 09:53:31 10° ESE
Cosmos 1140 Rocket 3.9 09:41:30 10° N 09:46:44 65° ENE 09:51:53 10° SSE
Cosmos 2366 rocket 4.2 09:42:25 10° N 09:48:36 74° E 09:54:47 10° SSE
Cosmos 2341 Rocket 4.0 09:43:39 10° N 09:50:01 72° W 09:56:22 10° S
SeaSat 1 3.3 09:47:07 10° NE 09:51:50 44° ESE 09:56:11 12° S
[s.n.52708] 3.7 09:53:18 30° WNW 09:53:44 32° NW 09:56:19 10° NNE
[s.n.52707] 3.7 09:53:24 30° WNW 09:53:51 32° NW 09:56:26 10° NNE
[s.n.52703] 3.7 09:53:31 30° WNW 09:53:58 32° NW 09:56:34 10° NNE
[s.n.52705] 3.7 09:53:37 30° WNW 09:54:04 32° NW 09:56:40 10° NNE
[s.n.52706] 3.7 09:53:44 30° WNW 09:54:12 32° NW 09:56:47 10° NNE
[s.n.52701] 3.7 09:53:51 30° WNW 09:54:19 32° NW 09:56:54 10° NNE
[s.n.52704] 3.7 09:53:58 30° WNW 09:54:26 32° NW 09:57:01 10° NNE
[s.n.52699] 3.7 09:54:04 29° WNW 09:54:32 32° NW 09:57:08 10° NNE
[s.n.52702] 3.7 09:54:11 29° WNW 09:54:40 31° NW 09:57:15 10° NNE
[s.n.52697] 3.7 09:54:18 29° WNW 09:54:47 31° NW 09:57:22 10° NNE
[s.n.52700] 3.7 09:54:24 29° WNW 09:54:53 31° NW 09:57:29 10° NNE
[s.n.52695] 3.8 09:54:31 29° WNW 09:55:01 31° NW 09:57:36 10° NNE
[s.n.52698] 3.8 09:54:38 29° WNW 09:55:08 31° NW 09:57:43 10° NNE
[s.n.52693] 3.8 09:54:45 29° WNW 09:55:15 31° NW 09:57:49 10° NNE
[s.n.52696] 3.8 09:54:51 29° WNW 09:55:22 31° NW 09:57:56 10° NNE
[s.n.52691] 3.8 09:54:58 28° WNW 09:55:29 31° NW 09:58:03 10° NNE
[s.n.52689] 3.8 09:55:05 28° WNW 09:55:37 31° NW 09:58:10 10° NNE
SL-8 Rocket 4.0 09:49:21 10° N 09:55:42 79° W 10:01:59 10° S
[s.n.52694] 3.8 09:55:12 28° WNW 09:55:43 31° NW 09:58:17 10° NNE
[s.n.52692] 3.8 09:55:19 28° WNW 09:55:50 31° NW 09:58:24 10° NNE
[s.n.52687] 3.8 09:55:25 28° WNW 09:55:57 30° NW 09:58:31 10° NNE
[s.n.52685] 3.8 09:55:32 28° WNW 09:56:05 30° NW 09:58:38 10° NNE
[s.n.52690] 3.8 09:55:39 28° WNW 09:56:11 30° NW 09:58:45 10° NNE
[s.n.52688] 3.8 09:55:46 28° WNW 09:56:18 30° NW 09:58:52 10° NNE
[s.n.52683] 3.8 09:55:52 27° WNW 09:56:25 30° NW 09:58:59 10° NNE
[s.n.52686] 3.8 09:55:59 27° WNW 09:56:33 30° NW 09:59:07 10° NNE
[s.n.52681] 3.8 09:56:06 27° WNW 09:56:40 30° NW 09:59:14 10° NNE
SL-24 DEB 4.2 09:52:24 12° S 09:56:46 82° W 10:01:30 10° N
[s.n.52679] 3.8 09:56:13 27° WNW 09:56:47 30° NW 09:59:21 10° NNE
[s.n.52684] 3.9 09:56:20 27° WNW 09:56:55 30° NW 09:59:28 10° NNE
[s.n.52682] 3.9 09:56:27 27° WNW 09:57:01 30° NW 09:59:35 10° NNE
[s.n.52677] 3.9 09:56:34 27° WNW 09:57:09 30° NW 09:59:42 10° NNE
Cosmos 1892 2.7 09:54:43 20° S 09:57:15 81° E 10:01:03 10° N
[s.n.52680] 3.9 09:56:41 27° WNW 09:57:16 29° NW 09:59:49 10° NNE
[s.n.52675] 3.9 09:56:47 27° WNW 09:57:23 29° NW 09:59:56 10° NNE
[s.n.52678] 3.9 09:56:54 26° WNW 09:57:31 29° NW 10:00:03 10° NNE
[s.n.52673] 3.9 09:57:02 26° WNW 09:57:38 29° NW 10:00:11 10° NNE
[s.n.52676] 3.9 09:57:09 26° WNW 09:57:45 29° NW 10:00:18 10° NNE
[s.n.52671] 3.9 09:57:17 26° WNW 09:57:53 29° NW 10:00:25 10° NNE
[s.n.52669] 3.9 09:57:23 26° WNW 09:58:00 29° NW 10:00:32 10° NNE
[s.n.52674] 3.9 09:57:30 26° WNW 09:58:07 29° NW 10:00:40 10° NNE
[s.n.52672] 3.9 09:57:36 26° WNW 09:58:13 29° NW 10:00:46 10° NNE
[s.n.52667] 3.9 09:57:45 26° WNW 09:58:22 29° NW 10:00:54 10° NNE
[s.n.52665] 3.9 09:57:51 26° WNW 09:58:29 29° NW 10:01:02 10° NNE
[s.n.52670] 3.9 09:57:58 25° WNW 09:58:37 28° NW 10:01:09 10° NNE
[s.n.52668] 3.9 09:58:05 25° WNW 09:58:44 28° NW 10:01:16 10° NNE
[s.n.52666] 4.0 09:58:12 25° WNW 09:58:52 28° NW 10:01:23 10° NNE
[s.n.52663] 4.0 09:58:19 25° WNW 09:58:59 28° NW 10:01:30 10° NNE
[s.n.52662] 4.0 09:58:26 25° WNW 09:59:06 28° NW 10:01:38 10° NNE
[s.n.52664] 4.0 09:58:33 25° WNW 09:59:13 28° NW 10:01:45 10° NNE
[s.n.52661] 4.0 09:58:40 25° WNW 09:59:21 28° NW 10:01:52 10° NNE
[s.n.52660] 4.0 09:58:47 25° WNW 09:59:28 28° NW 10:02:00 10° NNE
[s.n.52656] 4.0 09:58:55 25° WNW 09:59:36 28° NW 10:02:06 10° NNE
[s.n.52658] 4.0 09:59:02 25° WNW 09:59:44 28° NW 10:02:15 10° NNE
IRS-1C 4.2 09:54:26 10° NNE 09:59:48 83° ESE 10:04:46 12° SSW
[s.n.52659] 4.0 09:59:08 24° WNW 09:59:50 28° NW 10:02:22 10° NNE
[s.n.52657] 4.0 09:59:17 24° WNW 09:59:59 27° NW 10:02:29 10° NNE
SL-16 R/B 4.0 10:00:07 16° W 10:00:30 16° W 10:04:12 10° WNW
Cosmos 1023 Rocket 4.4 09:59:37 10° NNW 10:04:54 80° WSW 10:10:07 10° SSE
Cosmos 1943 Rocket 3.6 10:02:39 10° WNW 10:06:13 17° W 10:06:33 17° WSW
Cosmos 1624 Rocket 4.1 10:02:57 20° SSW 10:06:33 61° WNW 10:11:48 10° N
Cosmos 1408 2.6 10:04:50 23° SSW 10:06:54 58° W 10:10:29 10° N
FENGYUN 3A 3.7 10:01:44 10° N 10:07:05 68° WNW 10:11:39 14° SSW
Cosmos 2263 4.1 10:03:22 10° NNW 10:09:02 73° WSW 10:14:45 10° SSE
Cosmos 2228 4.4 10:07:08 10° NW 10:10:20 20° W 10:11:19 19° WSW
ADEOS II 4.2 10:10:26 10° NW 10:11:18 10° WNW 10:12:10 10° WNW
ARIANE 5 R/B 2.4 10:07:24 10° NNE 10:12:28 89° WNW 10:17:27 10° SSW
SEDSat Delta rocket 4.1 10:07:16 18° WSW 10:12:29 68° S 10:19:05 10° E
Cosmos 2056 Rocket 3.9 10:14:38 17° SW 10:18:16 46° WNW 10:23:18 10° N
Cosmos 1626 Rocket 3.5 10:15:49 10° S 10:20:13 90° W 10:24:38 10° N
Cosmos 2058 Rocket 3.0 10:16:29 10° NNW 10:20:49 63° W 10:25:05 10° S
OAO 2 Rocket 3.3 10:16:57 13° W 10:21:19 81° N 10:26:15 10° E
Cosmos 2369 Rocket 3.0 10:28:22 10° NW 10:33:08 29° WSW 10:37:53 10° SSW
Nadezhda 3 Rocket 4.1 10:27:11 10° S 10:33:32 87° W 10:39:50 10° N
YAOGAN 6 4.0 10:34:14 10° NNE 10:37:38 39° E 10:41:02 10° SSE
Cosmos 2218 Rocket 4.5 10:32:11 10° NNW 10:37:58 41° W 10:43:48 10° SSW
Cosmos 1190 Rocket 4.0 10:33:12 10° NNW 10:38:26 64° WSW 10:43:40 10° S
Cosmos 1656 Rocket 4.3 10:35:39 10° NW 10:40:23 32° WSW 10:45:07 10° SSW
CZ-4B R/B 4.4 10:36:15 10° NNE 10:41:20 52° E 10:46:27 10° S
CZ-4C R/B 3.7 10:38:58 10° SSE 10:42:29 63° ENE 10:46:11 10° N
Cosmos 1869 3.2 10:40:51 10° N 10:44:45 85° W 10:48:36 10° S
MINOTAUR 4 R/B 4.4 10:41:33 10° SSE 10:45:00 67° ENE 10:48:30 10° N
OAO 3 Copernicus 4.3 10:40:21 10° WSW 10:45:22 78° SSE 10:50:25 10° E
Cosmos 1758 Rocket 3.6 10:42:13 10° S 10:46:36 84° E 10:50:58 10° N
Helios 1B rocket 4.5 10:45:42 10° NW 10:47:27 13° WNW 10:49:11 10° W
Spot 4 Rocket 4.0 10:42:26 10° N 10:47:35 83° WNW 10:52:41 10° SSW
Meteor 1-27 4.2 10:42:36 10° NNW 10:48:20 76° W 10:53:57 10° S
CZ-2D R/B 4.0 10:47:41 10° N 10:51:22 37° WNW 10:55:01 10° SW
Cosmos 2058 4.5 10:47:42 10° SSE 10:51:29 38° E 10:55:19 10° NNE
ATLAS 3B CENTAUR R/B 3.4 10:48:20 10° SSW 10:52:01 28° SSE 10:57:56 10° E
ALOS 3.5 10:48:22 10° NNW 10:52:05 24° WNW 10:55:49 10° WSW
Meteor 1-29 4.3 10:49:53 10° NNW 10:52:28 22° WNW 10:55:03 10° SW
Cosmos 676 Rocket 4.0 10:51:41 10° NNW 10:57:01 75° WSW 11:02:19 10° S
Cosmos 1821 Rocket 4.1 10:52:03 10° NNW 10:58:22 63° W 11:04:38 10° S
